Location: Arrodets-la-Barthe
(43.0306°N, 0.2829°E)
Time: 19:13:02
(UTC+00:00)

Cosmos 1602 Rocket - Pass Details

Date: 24 October 2021
Orbit: 603 x 634 km, 82.5° (Epoch: 02 December)

Event Time Altitude Azimuth Distance (km) Brightness Sun altitude
Rises 17:45:37 0° 3° (N) 2,882 6.9 -8.6°
Reaches altitude 10° 17:48:10 10° 16° (NNE) 1,968 5.9 -9.1°
Maximum altitude 17:51:50 26° 74° (ENE) 1,202 4.5 -9.8°
Drops below altitude 10° 17:55:27 10° 131° (SE) 1,946 5.7 -10.4°
Sets 17:57:57 0° 144° (SE) 2,843 6.7 -10.9°
